When you browse on this site, cookies collect data to enhance your experience and personalize the content and advertising you see.
Visit our Privacy Policy to learn more. By continuing to use the site, you agree to this use of cookies and data.
  • In France
  • List of Countries
  • For 7 days
  • Water Temperature
  • Weather Map
  • Weather Widgets
  • user-avatar
    Login

    Hourly Weather Angamacutiro de la Union

    Today, 19 September, Thursday

    Time Temperature Precipitation Wind Pressure Humidity
    00:00 +19°C° 0 mm 1 mps 625 mmHg 96%
    01:00 +18°C° 0 mm 1 mps 625 mmHg 96%
    02:00 +18°C° 0 mm 1 mps 624 mmHg 96%
    03:00 +16°C° 0 mm 0 mps 624 mmHg 96%
    04:00 +15°C° 0 mm 0 mps 623 mmHg 97%
    05:00 +15°C° 0 mm 0 mps 623 mmHg 97%
    06:00 +16°C° 0 mm 0 mps 624 mmHg 94%
    07:00 +19°C° 0 mm 1 mps 625 mmHg 90%
    08:00 +21°C° 0 mm 1 mps 626 mmHg 87%
    09:00 +22°C° 0.3 mm 1 mps 626 mmHg 81%
    10:00 +24°C° 0.3 mm 1 mps 626 mmHg 75%
    11:00 +25°C° 0.3 mm 1 mps 626 mmHg 69%
    12:00 +25°C° 1.1 mm 1 mps 626 mmHg 71%
    13:00 +25°C° 1.1 mm 1 mps 625 mmHg 73%
    14:00 +25°C° 1.1 mm 1 mps 624 mmHg 75%
    15:00 +24°C° 1.1 mm 1 mps 624 mmHg 79%
    16:00 +23°C° 1.1 mm 1 mps 623 mmHg 84%
    17:00 +22°C° 1.1 mm 1 mps 623 mmHg 88%
    18:00 +21°C° 1.1 mm 1 mps 623 mmHg 90%
    19:00 +18°C° 1.1 mm 0 mps 623 mmHg 91%
    20:00 +17°C° 1.1 mm 0 mps 623 mmHg 93%
    21:00 +17°C° 0.6 mm 0 mps 623 mmHg 94%
    22:00 +17°C° 0.6 mm 0 mps 623 mmHg 94%
    23:00 +17°C° 0.6 mm 0 mps 623 mmHg 95%

    Tomorrow, 20 September, Friday

    Time Temperature Precipitation Wind Pressure Humidity
    00:00 +16°C° 0.3 mm 0 mps 623 mmHg 95%
    01:00 +16°C° 0.3 mm 0 mps 623 mmHg 95%
    02:00 +16°C° 0.3 mm 0 mps 623 mmHg 96%
    03:00 +16°C° 0.1 mm 0 mps 623 mmHg 96%
    04:00 +15°C° 0.1 mm 0 mps 623 mmHg 97%
    05:00 +15°C° 0.1 mm 0 mps 622 mmHg 97%
    06:00 +16°C° 0 mm 0 mps 623 mmHg 93%
    07:00 +18°C° 0 mm 0 mps 624 mmHg 89%
    08:00 +20°C° 0 mm 0 mps 625 mmHg 86%
    09:00 +24°C° 0.1 mm 1 mps 625 mmHg 74%
    10:00 +26°C° 0.1 mm 1 mps 626 mmHg 62%
    11:00 +29°C° 0.1 mm 1 mps 626 mmHg 50%
    12:00 +29°C° 0.2 mm 1 mps 626 mmHg 49%
    13:00 +29°C° 0.2 mm 1 mps 625 mmHg 49%
    14:00 +30°C° 0.2 mm 1 mps 625 mmHg 48%
    15:00 +28°C° 0.3 mm 1 mps 624 mmHg 56%
    16:00 +26°C° 0.3 mm 1 mps 624 mmHg 64%
    17:00 +25°C° 0.3 mm 1 mps 623 mmHg 72%
    18:00 +23°C° 0.3 mm 1 mps 623 mmHg 78%
    19:00 +21°C° 0.3 mm 1 mps 623 mmHg 84%
    20:00 +19°C° 0.3 mm 1 mps 623 mmHg 90%
    21:00 +18°C° 0.3 mm 1 mps 623 mmHg 91%
    22:00 +18°C° 0.3 mm 1 mps 623 mmHg 92%
    23:00 +18°C° 0.3 mm 1 mps 624 mmHg 93%

    Day after tomorrow, 21 September, Saturday

    Time Temperature Precipitation Wind Pressure Humidity
    00:00 +16°C° 0.1 mm 1 mps 623 mmHg 94%
    01:00 +16°C° 0.1 mm 1 mps 623 mmHg 94%
    02:00 +14°C° 0.1 mm 0 mps 623 mmHg 95%
    03:00 +14°C° 0 mm 0 mps 623 mmHg 95%
    04:00 +14°C° 0 mm 0 mps 623 mmHg 95%
    05:00 +14°C° 0 mm 1 mps 623 mmHg 95%
    06:00 +16°C° 0 mm 1 mps 624 mmHg 90%
    07:00 +19°C° 0 mm 1 mps 625 mmHg 86%
    08:00 +21°C° 0 mm 1 mps 626 mmHg 81%
    09:00 +24°C° 0 mm 1 mps 626 mmHg 69%
    10:00 +27°C° 0 mm 1 mps 627 mmHg 58%
    11:00 +30°C° 0 mm 1 mps 627 mmHg 46%
    12:00 +30°C° 0 mm 1 mps 626 mmHg 46%
    13:00 +30°C° 0 mm 1 mps 626 mmHg 45%
    14:00 +30°C° 0 mm 1 mps 625 mmHg 44%
    15:00 +28°C° 0.1 mm 1 mps 624 mmHg 52%
    16:00 +26°C° 0.1 mm 1 mps 624 mmHg 61%
    17:00 +25°C° 0.1 mm 1 mps 623 mmHg 69%
    18:00 +23°C° 0.4 mm 1 mps 624 mmHg 74%
    19:00 +22°C° 0.4 mm 1 mps 624 mmHg 79%
    20:00 +20°C° 0.4 mm 1 mps 624 mmHg 84%
    21:00 +20°C° 0.2 mm 1 mps 624 mmHg 86%
    22:00 +17°C° 0.2 mm 0 mps 624 mmHg 89%
    23:00 +17°C° 0.2 mm 0 mps 624 mmHg 91%

    22 September, Sunday

    Time Temperature Precipitation Wind Pressure Humidity
    00:00 +16°C° 0.1 mm 0 mps 624 mmHg 92%
    01:00 +16°C° 0.1 mm 0 mps 623 mmHg 93%
    02:00 +15°C° 0.1 mm 0 mps 623 mmHg 93%
    03:00 +15°C° 0 mm 0 mps 623 mmHg 94%
    04:00 +14°C° 0 mm 0 mps 623 mmHg 95%
    05:00 +14°C° 0 mm 0 mps 623 mmHg 95%
    06:00 +18°C° 0 mm 1 mps 624 mmHg 90%
    07:00 +20°C° 0 mm 1 mps 625 mmHg 84%
    08:00 +22°C° 0 mm 1 mps 626 mmHg 79%
    09:00 +25°C° 0 mm 1 mps 626 mmHg 69%
    10:00 +27°C° 0 mm 1 mps 627 mmHg 59%
    11:00 +29°C° 0 mm 1 mps 627 mmHg 49%
    12:00 +29°C° 0 mm 1 mps 626 mmHg 46%
    13:00 +30°C° 0 mm 2 mps 626 mmHg 44%
    14:00 +30°C° 0 mm 2 mps 625 mmHg 41%
    15:00 +28°C° 0 mm 2 mps 625 mmHg 48%
    16:00 +27°C° 0 mm 1 mps 624 mmHg 54%
    17:00 +26°C° 0 mm 1 mps 624 mmHg 60%
    18:00 +24°C° 0 mm 1 mps 624 mmHg 64%
    19:00 +22°C° 0 mm 1 mps 624 mmHg 67%
    20:00 +20°C° 0 mm 1 mps 623 mmHg 71%
    21:00 +19°C° 0 mm 1 mps 624 mmHg 75%
    22:00 +19°C° 0 mm 1 mps 624 mmHg 78%
    23:00 +16°C° 0 mm 0 mps 624 mmHg 82%

    23 September, Monday

    Time Temperature Precipitation Wind Pressure Humidity
    00:00 +16°C° 0 mm 0 mps 624 mmHg 85%
    01:00 +15°C° 0 mm 0 mps 623 mmHg 88%
    02:00 +14°C° 0 mm 0 mps 623 mmHg 92%
    03:00 +14°C° 0 mm 0 mps 623 mmHg 93%
    04:00 +14°C° 0 mm 0 mps 623 mmHg 94%
    05:00 +14°C° 0 mm 0 mps 623 mmHg 95%
    06:00 +16°C° 0 mm 0 mps 624 mmHg 86%
    07:00 +19°C° 0 mm 0 mps 626 mmHg 78%
    08:00 +21°C° 0 mm 0 mps 627 mmHg 70%
    09:00 +25°C° 0 mm 1 mps 627 mmHg 63%
    10:00 +28°C° 0 mm 1 mps 628 mmHg 56%
    11:00 +30°C° 0 mm 1 mps 628 mmHg 48%
    12:00 +30°C° 0.1 mm 1 mps 627 mmHg 47%
    13:00 +30°C° 0.1 mm 2 mps 626 mmHg 45%
    14:00 +30°C° 0.1 mm 2 mps 626 mmHg 44%
    15:00 +28°C° 0.1 mm 1 mps 625 mmHg 50%
    16:00 +27°C° 0.1 mm 1 mps 625 mmHg 56%
    17:00 +24°C° 0.1 mm 0 mps 624 mmHg 63%
    18:00 +22°C° 0 mm 0 mps 624 mmHg 68%
    19:00 +20°C° 0 mm 0 mps 624 mmHg 74%
    20:00 +20°C° 0 mm 1 mps 624 mmHg 79%
    21:00 +19°C° 0 mm 1 mps 624 mmHg 82%
    22:00 +16°C° 0 mm 0 mps 623 mmHg 84%
    23:00 +16°C° 0 mm 0 mps 623 mmHg 87%

    24 September, Tuesday

    Time Temperature Precipitation Wind Pressure Humidity
    00:00 +15°C° 0 mm 0 mps 623 mmHg 88%
    01:00 +15°C° 0 mm 0 mps 623 mmHg 89%
    02:00 +14°C° 0 mm 0 mps 623 mmHg 90%
    03:00 +14°C° 0 mm 0 mps 623 mmHg 91%
    04:00 +14°C° 0 mm 0 mps 623 mmHg 92%
    05:00 +14°C° 0 mm 0 mps 623 mmHg 93%
    06:00 +16°C° 0 mm 0 mps 624 mmHg 85%
    07:00 +19°C° 0 mm 0 mps 625 mmHg 77%
    08:00 +21°C° 0 mm 0 mps 626 mmHg 70%
    09:00 +24°C° 0 mm 0 mps 626 mmHg 62%
    10:00 +28°C° 0 mm 1 mps 627 mmHg 54%
    11:00 +30°C° 0 mm 1 mps 627 mmHg 47%
    12:00 +30°C° 0 mm 1 mps 626 mmHg 44%
    13:00 +30°C° 0 mm 1 mps 626 mmHg 41%
    14:00 +31°C° 0 mm 1 mps 625 mmHg 37%
    15:00 +29°C° 0.1 mm 1 mps 624 mmHg 46%
    16:00 +27°C° 0.1 mm 1 mps 624 mmHg 54%
    17:00 +25°C° 0.1 mm 1 mps 623 mmHg 62%
    18:00 +23°C° 0.1 mm 1 mps 623 mmHg 70%
    19:00 +21°C° 0.1 mm 1 mps 623 mmHg 78%
    20:00 +19°C° 0.1 mm 1 mps 622 mmHg 86%
    21:00 +19°C° 0 mm 1 mps 622 mmHg 88%
    22:00 +18°C° 0 mm 1 mps 622 mmHg 90%
    23:00 +18°C° 0 mm 1 mps 622 mmHg 92%
    Show more